DateTimeUTC,F1_A11,F1_S11,BsB_S11,BsG_S11,BsR_S11,BbsB_S11,BbsG_S11,BbsR_S11,BaB_A11,BaG_A11,BaR_A11,Tu_S11,T_S11,Uu_S11,U_S11,P_S11,T1_A11
2021-02-17T20:00:00Z,00000200,21000000,,,,,,,0000.24,0000.14,0000.25,16.5,23.1,,00.0,0636.6,31.0
2021-02-17T20:01:00Z,00000200,21000000,,,,,,,-000.37,0000.03,-000.12,16.5,23.1,,00.0,0636.6,31.0
2021-02-17T20:02:00Z,00000200,21000000,,,,,,,0000.24,-000.11,0000.41,16.5,23.0,,00.0,0636.6,31.0
2021-02-17T20:03:00Z,00000200,61000000,,,,,,,0000.48,0000.29,-000.38,16.5,23.1,,00.0,0636.6,31.0
2021-02-17T20:04:00Z,00000200,41000000,0000.25,-000.19,-000.20,0000.23,0000.13,0000.23,0000.03,-000.08,0000.45,16.5,22.9,,00.0,0637.4,31.0
2021-02-17T20:05:00Z,00000200,01000000,0000.63,0000.04,0000.15,0000.69,-000.01,0000.18,0000.18,0000.53,0000.18,16.6,22.8,,00.0,0637.4,31.0
2021-02-17T20:06:00Z,00000200,01000000,-000.10,-000.12,0000.22,0000.10,0000.02,0000.18,0000.36,-000.02,0000.12,16.7,22.8,,00.0,0637.4,31.0
2021-02-17T20:07:00Z,00000200,01000000,0000.20,-000.13,0000.10,0000.98,0000.11,0000.15,0000.11,-000.11,-000.32,16.8,22.9,,00.0,0637.4,31.0
2021-02-17T20:08:00Z,00000200,01000000,0000.05,0000.26,-000.20,0000.39,0000.03,0000.18,0000.14,0000.34,0000.47,16.8,22.9,,00.0,0637.4,31.0
2021-02-17T20:09:00Z,00000200,01000000,0000.67,-000.05,0000.01,-000.01,0000.45,0000.20,0000.01,0000.06,-000.18,16.8,22.9,,00.0,0637.4,31.0
2021-02-17T20:10:00Z,00000200,01000000,0000.21,-000.00,0000.05,0000.49,0000.16,0000.17,-000.13,0000.23,0000.22,16.8,22.9,,00.0,0637.4,31.0
2021-02-17T20:11:00Z,00000200,01000000,0000.81,0000.05,0000.16,-000.18,0000.10,0000.13,0000.09,-000.20,0000.09,16.8,22.9,,00.0,0637.4,31.0
2021-02-17T20:12:00Z,00000200,01000000,-000.48,0000.26,0000.17,0000.59,-000.20,0000.04,0000.14,0000.23,0000.10,16.8,22.9,,00.0,0637.5,31.0
2021-02-17T20:13:00Z,00000200,01000000,0000.25,0000.02,0000.10,0000.25,0000.05,0000.20,-000.09,-000.19,-000.14,16.7,22.9,,00.0,0637.5,31.0
2021-02-17T20:14:00Z,00000200,01000000,0000.22,0000.14,0000.44,0000.75,0000.09,0000.24,0000.56,0000.38,0000.15,16.7,22.9,,00.0,0637.5,31.0
2021-02-17T20:15:00Z,00000200,01000000,0000.57,-000.25,0000.07,-000.25,-000.04,0000.14,-000.16,0000.07,0000.10,16.7,22.9,,00.0,0637.5,31.0
2021-02-17T20:16:00Z,00000200,01000000,0000.58,-000.09,0000.49,0000.16,0000.11,0000.35,0000.06,0000.29,0000.09,16.7,22.8,,00.0,0637.5,31.0
2021-02-17T20:17:00Z,00000200,01000000,-000.14,-000.03,0000.11,0000.52,-000.14,0000.13,0000.12,-000.21,0000.01,16.6,22.8,,00.0,0637.5,31.0
2021-02-17T20:18:00Z,00000200,01000000,0001.05,0000.14,-000.02,0000.75,0000.12,0000.03,0000.02,0000.04,0000.08,16.6,22.8,,00.0,0637.5,31.0
2021-02-17T20:19:00Z,00000200,01000000,0000.23,0000.12,0000.26,0000.36,0000.46,0000.06,0000.41,0000.34,-000.04,16.6,22.8,,00.0,0637.5,31.0
2021-02-17T20:20:00Z,00000200,01000000,0000.78,-000.17,0000.03,-000.05,-000.06,0000.12,0000.24,0000.28,0000.59,16.6,22.8,,00.0,0637.5,31.0
2021-02-17T20:21:00Z,00000200,01000000,0000.36,0000.28,0000.29,0000.12,0000.24,0000.13,0000.40,0000.21,-000.11,16.7,22.8,,00.0,0637.5,31.0
2021-02-17T20:22:00Z,00000200,01000000,0000.27,-000.03,0000.21,0000.39,-000.10,0000.48,0000.11,0000.14,0000.37,16.8,22.9,,00.0,0637.5,31.0
2021-02-17T20:23:00Z,00000200,01000000,0000.47,-000.02,0000.42,-000.40,0000.00,0000.31,0000.13,0000.41,0000.36,16.9,22.9,,00.0,0637.5,31.0
2021-02-17T20:24:00Z,00000200,01000000,0000.26,0000.14,0000.39,0000.36,0000.27,0000.26,0000.25,0000.08,-000.22,17.0,23.0,,00.0,0637.5,31.0
2021-02-17T20:25:00Z,00000200,01000000,0000.26,0000.06,0000.10,0000.49,0000.03,0000.25,-000.10,0000.01,0000.18,17.1,23.0,,00.0,0637.5,31.0
2021-02-17T20:26:00Z,00000200,01000000,0000.83,0000.35,0000.20,0000.02,0000.27,0000.03,0000.01,0000.10,0000.09,17.2,23.0,,00.0,0637.5,31.0
2021-02-17T20:27:00Z,00000200,01000000,0000.14,-000.00,-000.01,0000.12,0000.10,-000.03,0000.53,0000.10,-000.04,17.1,23.1,,00.0,0637.5,31.0
2021-02-17T20:28:00Z,00000200,01000000,0001.21,0000.41,-000.31,0000.23,-000.08,-000.04,-000.44,0000.08,0000.02,17.1,23.0,,00.0,0637.5,31.0
2021-02-17T20:29:00Z,00000200,01000000,0000.18,0000.16,0000.13,0000.10,0000.08,0000.08,0000.06,0000.18,0000.00,17.1,23.0,,00.0,0637.5,31.0
2021-02-17T20:30:00Z,00000200,01000000,0000.58,0000.28,-000.03,-000.20,0000.20,0000.33,0000.21,-000.19,0000.02,17.1,23.0,,00.0,0637.5,31.0
2021-02-17T20:31:00Z,00000200,01000000,0000.15,0000.11,-000.09,0000.45,-000.22,-000.15,0000.28,0000.09,0000.14,17.0,23.0,,00.0,0637.5,31.0
2021-02-17T20:32:00Z,00000200,01000000,0000.32,0000.08,0000.19,-000.18,0000.12,0000.31,0000.07,0000.25,0000.16,17.0,23.0,,00.0,0637.6,31.0
2021-02-17T20:33:00Z,00000200,01000000,-000.10,-000.24,-000.23,0000.35,-000.04,0000.15,0000.07,-000.18,-000.12,17.0,23.0,,00.0,0637.6,31.0
2021-02-17T20:34:00Z,00000200,01000000,-000.21,-000.20,0000.15,0000.28,-000.02,-000.09,0000.04,0000.40,0000.03,17.0,23.0,,00.0,0637.6,31.0
2021-02-17T20:35:00Z,00000200,01000000,0000.29,0000.16,0000.03,0000.32,0000.14,-000.15,0000.44,-000.16,0000.17,17.0,23.0,,00.0,0637.6,31.0
2021-02-17T20:36:00Z,00000200,01000000,-000.01,0000.06,0000.20,0000.04,-000.11,0000.01,0000.01,0000.28,0000.33,17.1,23.0,,00.0,0637.6,31.0
2021-02-17T20:37:00Z,00000200,01000000,0000.21,0000.19,0000.15,0000.36,-000.01,0000.16,0000.14,0000.21,0000.15,17.2,23.1,,00.0,0637.6,31.0
2021-02-17T20:38:00Z,00000200,01000000,0000.42,0000.26,0000.30,-000.45,0000.13,0000.16,-000.03,0000.20,0000.41,17.3,23.1,,00.0,0637.6,31.0
2021-02-17T20:39:00Z,00000200,01000000,0000.88,0000.23,0000.17,0000.23,0000.08,0000.27,0000.14,0000.03,-000.17,17.3,23.2,,00.0,0637.6,31.1
2021-02-17T20:40:00Z,00000200,01000000,0000.28,-000.12,0000.15,0000.46,0000.07,-000.01,-000.13,-000.30,-000.22,17.4,23.2,,00.0,0637.7,31.1
2021-02-17T20:41:00Z,00000200,01000000,0000.19,-000.04,0000.04,0000.50,0000.02,-000.17,0000.38,0000.40,0000.26,17.5,23.2,,00.0,0637.7,31.0
2021-02-17T20:42:00Z,00000200,01000000,0000.28,-000.13,-000.04,0000.36,-000.02,-000.06,-000.09,0000.04,-000.23,17.5,23.2,,00.0,0637.7,31.0
2021-02-17T20:43:00Z,00000200,01000000,0000.38,0000.38,0000.22,-000.09,0000.11,-000.02,-000.05,-000.03,-000.41,17.4,23.2,,00.0,0637.7,31.0
2021-02-17T20:44:00Z,00000200,01000000,0000.69,0000.24,-000.05,0000.38,-000.08,-000.11,-000.20,-000.09,-000.00,17.4,23.2,,00.0,0637.7,31.0
2021-02-17T20:45:00Z,00000200,01000000,0000.61,0000.35,0000.38,0000.50,0000.40,0000.18,0000.01,-000.17,0000.24,17.4,23.2,,00.0,0637.7,31.0
2021-02-17T20:46:00Z,00000200,01000000,0000.37,0000.22,0000.35,0000.12,0000.04,0000.08,0000.12,0000.36,0000.39,17.3,23.2,,00.0,0637.7,31.0
2021-02-17T20:47:00Z,00000200,01000000,0000.22,0000.10,-000.06,0000.82,0000.02,0000.24,-000.05,0000.26,-000.17,17.3,23.2,,00.0,0637.7,31.0
2021-02-17T20:48:00Z,00000200,01000000,0000.53,-000.31,0000.40,0000.24,-000.11,0000.16,0000.57,-000.01,-000.22,17.3,23.2,,00.0,0637.7,31.0
2021-02-17T20:49:00Z,00000200,01000000,-000.06,0000.18,-000.06,0000.11,0000.01,-000.02,-000.41,-000.42,0000.07,17.2,23.2,,00.0,0637.7,31.0
2021-02-17T20:50:00Z,00000200,01000000,0000.43,-000.02,0000.28,0000.23,-000.05,0000.29,0000.11,0000.14,0000.37,17.2,23.2,,00.0,0637.7,31.0
2021-02-17T20:51:00Z,00000200,01000000,-000.10,-000.24,0000.11,0000.24,-000.11,0000.25,0000.24,0000.31,0000.14,17.2,23.2,,00.0,0637.7,31.0
2021-02-17T20:52:00Z,00000200,01000000,0000.98,0000.25,0000.38,0000.26,0000.21,-000.05,-000.05,0000.18,0000.01,17.2,23.2,,00.0,0637.7,31.0
2021-02-17T20:53:00Z,00000200,01000000,-000.02,-000.12,0000.18,0000.09,-000.02,0000.02,0000.11,-000.02,-000.25,17.1,23.2,,00.0,0637.7,31.0
2021-02-17T20:54:00Z,00000200,01000000,0001.30,-000.05,-000.08,0000.28,-000.04,0000.14,-000.11,-000.20,0000.10,17.1,23.1,,00.0,0637.7,31.0
2021-02-17T20:55:00Z,00000200,01000000,0000.59,0000.03,0000.12,0000.06,0000.16,0000.38,0000.23,0000.23,0000.22,17.1,23.1,,00.0,0637.7,31.0
2021-02-17T20:56:00Z,00000200,01000000,-000.05,0000.14,0000.20,0000.66,0000.13,0000.21,-000.06,0000.08,-000.26,17.1,23.1,,00.0,0637.7,31.0
2021-02-17T20:57:00Z,00000200,41000000,,,,,,,-000.16,-000.34,-000.22,17.1,23.1,,00.0,0637.7,31.0
2021-02-17T20:58:00Z,00000200,61000000,,,,,,,-000.22,-000.11,0000.27,16.7,23.2,,00.0,0636.8,31.0
2021-02-17T20:59:00Z,00000200,21000000,,,,,,,0000.13,0000.15,0000.21,16.7,23.3,,00.0,0636.8,31.0
